| time (UTC) | temp C | wind direction | speed KPH | gust KPH | rain 1hr cm | rain 24hr cm | rain mn cm | humidity % | barometer mb |
| 20260508200352 | 21 | 242 | 9.7 | 14.5 | 0.00 | 0.00 | 0.00 | 44 | 1010.2 |
| 20260508195851 | 21 | 235 | 11.3 | 20.9 | 0.00 | 0.00 | 0.00 | 44 | 1010.1 |
| 20260508195350 | 21 | 233 | 9.7 | 12.9 | 0.00 | 0.00 | 0.00 | 44 | 1010.1 |
| 20260508194852 | 21 | 316 | 4.8 | 8.0 | 0.00 | 0.00 | 0.00 | 44 | 1010.2 |
| 20260508194354 | 21 | 248 | 14.5 | 17.7 | 0.00 | 0.00 | 0.00 | 43 | 1010.3 |
| 20260508193851 | 21 | 231 | 4.8 | 8.0 | 0.00 | 0.00 | 0.00 | 45 | 1010.3 |
| 20260508193356 | 21 | 253 | 9.7 | 16.1 | 0.00 | 0.00 | 0.00 | 45 | 1010.2 |
| 20260508192852 | 20 | 253 | 6.4 | 11.3 | 0.00 | 0.00 | 0.00 | 46 | 1010.4 |
| 20260508192352 | 20 | 248 | 9.7 | 11.3 | 0.00 | 0.00 | 0.00 | 45 | 1010.4 |
| 20260508191850 | 20 | 220 | 9.7 | 12.9 | 0.00 | 0.00 | 0.00 | 45 | 1010.5 |
| 20260508191352 | 20 | 235 | 9.7 | 14.5 | 0.00 | 0.00 | 0.00 | 46 | 1010.7 |
| 20260508190849 | 20 | 263 | 9.7 | 14.5 | 0.00 | 0.00 | 0.00 | 45 | 1010.8 |
| 20260508190351 | 20 | 256 | 8.0 | 16.1 | 0.00 | 0.00 | 0.00 | 44 | 1010.8 |
| 20260508185852 | 20 | 220 | 11.3 | 16.1 | 0.00 | 0.00 | 0.00 | 45 | 1010.9 |
| 20260508185357 | 20 | 236 | 6.4 | 9.7 | 0.00 | 0.00 | 0.00 | 46 | 1011.3 |
| 20260508184852 | 20 | 234 | 9.7 | 12.9 | 0.00 | 0.00 | 0.00 | 46 | 1011.2 |
| 20260508184354 | 20 | 231 | 8.0 | 11.3 | 0.00 | 0.00 | 0.00 | 46 | 1011.3 |
| 20260508183851 | 20 | 239 | 6.4 | 11.3 | 0.00 | 0.00 | 0.00 | 45 | 1011.5 |
| 20260508183353 | 20 | 250 | 12.9 | 22.5 | 0.00 | 0.00 | 0.00 | 43 | 1011.4 |
| 20260508182851 | 20 | 249 | 12.9 | 17.7 | 0.00 | 0.00 | 0.00 | 44 | 1011.3 |
| 20260508182351 | 20 | 297 | 3.2 | 4.8 | 0.00 | 0.00 | 0.00 | 47 | 1011.7 |
| 20260508181851 | 20 | 257 | 11.3 | 20.9 | 0.00 | 0.00 | 0.00 | 46 | 1011.8 |
| 20260508181351 | 20 | 302 | 4.8 | 12.9 | 0.00 | 0.00 | 0.00 | 48 | 1011.7 |
| 20260508180850 | 19 | 276 | 8.0 | 16.1 | 0.00 | 0.00 | 0.00 | 47 | 1011.9 |
| 20260508180351 | 19 | 256 | 11.3 | 16.1 | 0.00 | 0.00 | 0.00 | 45 | 1011.7 |
| 20260508175851 | 19 | 272 | 4.8 | 9.7 | 0.00 | 0.00 | 0.00 | 48 | 1012.1 |
| 20260508175352 | 19 | 248 | 9.7 | 14.5 | 0.00 | 0.00 | 0.00 | 47 | 1012.1 |
| 20260508174853 | 19 | 261 | 9.7 | 17.7 | 0.00 | 0.00 | 0.00 | 47 | 1012.2 |
| 20260508174351 | 19 | 248 | 9.7 | 16.1 | 0.00 | 0.00 | 0.00 | 48 | 1012.3 |
| 20260508173854 | 19 | 268 | 6.4 | 9.7 | 0.00 | 0.00 | 0.00 | 48 | 1012.3 |
| 20260508173351 | 19 | 244 | 4.8 | 8.0 | 0.00 | 0.00 | 0.00 | 48 | 1012.5 |
| 20260508172852 | 19 | 258 | 4.8 | 12.9 | 0.00 | 0.00 | 0.00 | 48 | 1012.6 |
| 20260508172353 | 19 | 265 | 8.0 | 14.5 | 0.00 | 0.00 | 0.00 | 46 | 1012.7 |
| 20260508171850 | 19 | 253 | 14.5 | 22.5 | 0.00 | 0.00 | 0.00 | 45 | 1012.7 |
| 20260508171352 | 19 | 246 | 9.7 | 14.5 | 0.00 | 0.00 | 0.00 | 48 | 1012.8 |
| 20260508170407 | 19 | 273 | 4.8 | 8.0 | 0.00 | 0.00 | 0.00 | 49 | 1013.1 |
| 20260508165853 | 19 | 268 | 9.7 | 16.1 | 0.00 | 0.00 | 0.00 | 48 | 1013.0 |
| 20260508165352 | 19 | 266 | 6.4 | 8.0 | 0.00 | 0.00 | 0.00 | 50 | 1013.3 |
| 20260508164853 | 19 | 262 | 4.8 | 9.7 | 0.00 | 0.00 | 0.00 | 50 | 1013.4 |
| 20260508163912 | 18 | 296 | 4.8 | 12.9 | 0.00 | 0.00 | 0.00 | 51 | 1013.5 |
| 20260508163353 | 18 | 267 | 8.0 | 14.5 | 0.00 | 0.00 | 0.00 | 48 | 1013.4 |
| 20260508162850 | 18 | 251 | 12.9 | 14.5 | 0.00 | 0.00 | 0.00 | 50 | 1013.5 |
| 20260508162351 | 18 | 241 | 14.5 | 24.1 | 0.00 | 0.00 | 0.00 | 50 | 1013.5 |
| 20260508161850 | 18 | 271 | 9.7 | 16.1 | 0.00 | 0.00 | 0.00 | 49 | 1013.7 |
| 20260508161352 | 18 | 260 | 9.7 | 20.9 | 0.00 | 0.00 | 0.00 | 49 | 1013.9 |
| 20260508160851 | 18 | 269 | 8.0 | 20.9 | 0.00 | 0.00 | 0.00 | 52 | 1013.6 |
| 20260508160352 | 17 | 250 | 9.7 | 14.5 | 0.00 | 0.00 | 0.00 | 50 | 1013.7 |
| 20260508155849 | 17 | 230 | 11.3 | 19.3 | 0.00 | 0.00 | 0.00 | 51 | 1013.9 |
| 20260508155353 | 17 | 238 | 11.3 | 17.7 | 0.00 | 0.00 | 0.00 | 50 | 1013.9 |
| 20260508154850 | 17 | 228 | 11.3 | 16.1 | 0.00 | 0.00 | 0.00 | 51 | 1014.0 |
| 20260508154350 | 17 | 250 | 6.4 | 14.5 | 0.00 | 0.00 | 0.00 | 52 | 1014.1 |
| 20260508153852 | 17 | 274 | 9.7 | 17.7 | 0.00 | 0.00 | 0.00 | 53 | 1014.2 |
| 20260508153353 | 17 | 238 | 11.3 | 19.3 | 0.00 | 0.00 | 0.00 | 51 | 1014.3 |
| 20260508152852 | 17 | 273 | 4.8 | 12.9 | 0.00 | 0.00 | 0.00 | 55 | 1014.4 |
| 20260508152352 | 17 | 230 | 8.0 | 14.5 | 0.00 | 0.00 | 0.00 | 53 | 1014.4 |
| 20260508151852 | 17 | 275 | 3.2 | 6.4 | 0.00 | 0.00 | 0.00 | 56 | 1014.5 |
| 20260508151352 | 16 | 248 | 8.0 | 14.5 | 0.00 | 0.00 | 0.00 | 55 | 1014.4 |
| 20260508150851 | 16 | 269 | 8.0 | 16.1 | 0.00 | 0.00 | 0.00 | 53 | 1014.5 |
| 20260508150351 | 16 | 239 | 8.0 | 12.9 | 0.00 | 0.00 | 0.00 | 55 | 1014.7 |
| 20260508145852 | 16 | 259 | 12.9 | 20.9 | 0.00 | 0.00 | 0.00 | 54 | 1014.4 |
| 20260508145353 | 16 | 259 | 9.7 | 16.1 | 0.00 | 0.00 | 0.00 | 54 | 1014.4 |
| 20260508144851 | 16 | 241 | 11.3 | 14.5 | 0.00 | 0.00 | 0.00 | 53 | 1014.5 |
| 20260508144354 | 16 | 247 | 8.0 | 11.3 | 0.00 | 0.00 | 0.00 | 54 | 1014.8 |
| 20260508143851 | 16 | 227 | 6.4 | 14.5 | 0.00 | 0.00 | 0.00 | 55 | 1014.7 |
| 20260508143351 | 16 | 244 | 9.7 | 17.7 | 0.00 | 0.00 | 0.00 | 54 | 1014.7 |
| 20260508142851 | 15 | 245 | 4.8 | 6.4 | 0.00 | 0.00 | 0.00 | 55 | 1014.9 |
| 20260508142351 | 15 | 268 | 4.8 | 12.9 | 0.00 | 0.00 | 0.00 | 53 | 1014.8 |
| 20260508141855 | 15 | 259 | 9.7 | 16.1 | 0.00 | 0.00 | 0.00 | 54 | 1014.8 |
| 20260508141351 | 15 | 251 | 9.7 | 12.9 | 0.00 | 0.00 | 0.00 | 54 | 1014.9 |
| 20260508140853 | 15 | 248 | 8.0 | 11.3 | 0.00 | 0.00 | 0.00 | 55 | 1015.0 |
| 20260508140352 | 15 | 243 | 11.3 | 16.1 | 0.00 | 0.00 | 0.00 | 55 | 1015.0 |
| 20260508135853 | 14 | 251 | 9.7 | 14.5 | 0.00 | 0.00 | 0.00 | 54 | 1014.9 |
| 20260508135352 | 14 | 253 | 12.9 | 17.7 | 0.00 | 0.00 | 0.00 | 54 | 1014.9 |
| 20260508134853 | 14 | 259 | 11.3 | 17.7 | 0.00 | 0.00 | 0.00 | 54 | 1014.9 |
| 20260508134352 | 14 | 259 | 14.5 | 19.3 | 0.00 | 0.00 | 0.00 | 54 | 1014.9 |
| 20260508133852 | 13 | 254 | 9.7 | 14.5 | 0.00 | 0.00 | 0.00 | 56 | 1014.9 |
| 20260508133352 | 13 | 229 | 14.5 | 17.7 | 0.00 | 0.00 | 0.00 | 56 | 1015.0 |
| 20260508132852 | 13 | 239 | 8.0 | 12.9 | 0.00 | 0.00 | 0.00 | 58 | 1015.1 |
| 20260508132352 | 13 | 257 | 3.2 | 6.4 | 0.00 | 0.00 | 0.00 | 61 | 1015.1 |
| 20260508131852 | 12 | 232 | 9.7 | 12.9 | 0.00 | 0.00 | 0.00 | 60 | 1015.0 |
| 20260508131350 | 12 | 225 | 6.4 | 9.7 | 0.00 | 0.00 | 0.00 | 60 | 1015.0 |
| 20260508130852 | 12 | 246 | 8.0 | 12.9 | 0.00 | 0.00 | 0.00 | 61 | 1015.0 |
| 20260508130350 | 12 | 252 | 3.2 | 6.4 | 0.00 | 0.00 | 0.00 | 63 | 1015.1 |
| 20260508125852 | 11 | 235 | 9.7 | 14.5 | 0.00 | 0.00 | 0.00 | 64 | 1015.2 |
| 20260508125351 | 11 | 223 | 8.0 | 11.3 | 0.00 | 0.00 | 0.00 | 66 | 1015.3 |
| 20260508124851 | 11 | 234 | 6.4 | 9.7 | 0.00 | 0.00 | 0.00 | 67 | 1015.3 |
| 20260508124353 | 10 | 233 | 9.7 | 12.9 | 0.00 | 0.00 | 0.00 | 67 | 1015.3 |
| 20260508123853 | 10 | 246 | 6.4 | 9.7 | 0.00 | 0.00 | 0.00 | 67 | 1015.4 |
| 20260508123353 | 10 | 243 | 8.0 | 11.3 | 0.00 | 0.00 | 0.00 | 68 | 1015.3 |
| 20260508122852 | 10 | 248 | 6.4 | 9.7 | 0.00 | 0.00 | 0.00 | 70 | 1015.3 |
| 20260508122349 | 9 | 243 | 6.4 | 9.7 | 0.00 | 0.00 | 0.00 | 70 | 1015.4 |
| 20260508121851 | 8 | 252 | 8.0 | 11.3 | 0.00 | 0.00 | 0.00 | 72 | 1015.3 |
| 20260508121351 | 8 | 245 | 9.7 | 12.9 | 0.00 | 0.00 | 0.00 | 74 | 1015.4 |
| 20260508120851 | 8 | 247 | 3.2 | 6.4 | 0.00 | 0.00 | 0.00 | 77 | 1015.6 |
| 20260508120352 | 7 | 208 | 6.4 | 9.7 | 0.00 | 0.00 | 0.00 | 77 | 1015.5 |
| 20260508115851 | 7 | 224 | 6.4 | 8.0 | 0.00 | 0.00 | 0.00 | 77 | 1015.6 |
| 20260508115352 | 7 | 217 | 3.2 | 6.4 | 0.00 | 0.00 | 0.00 | 78 | 1015.5 |
| 20260508114851 | 7 | 204 | 3.2 | 4.8 | 0.00 | 0.00 | 0.00 | 79 | 1015.4 |
| 20260508114349 | 7 | 206 | 3.2 | 4.8 | 0.00 | 0.00 | 0.00 | 78 | 1015.4 |
| 20260508113850 | 7 | 211 | 3.2 | 4.8 | 0.00 | 0.00 | 0.00 | 78 | 1015.5 |
| 20260508113351 | 7 | 222 | 3.2 | 4.8 | 0.00 | 0.00 | 0.00 | 78 | 1015.4 |
| 20260508112853 | 7 | 217 | 3.2 | 4.8 | 0.00 | 0.00 | 0.00 | 79 | 1015.4 |
| 20260508112352 | 7 | 217 | 4.8 | 4.8 | 0.00 | 0.00 | 0.00 | 78 | 1015.3 |
| 20260508111852 | 7 | 226 | 6.4 | 6.4 | 0.00 | 0.00 | 0.00 | 78 | 1015.3 |
| 20260508111350 | 7 | 209 | 3.2 | 4.8 | 0.00 | 0.00 | 0.00 | 78 | 1015.2 |
| 20260508110856 | 7 | 211 | 4.8 | 6.4 | 0.00 | 0.00 | 0.00 | 78 | 1015.2 |
| 20260508110353 | 7 | 229 | 3.2 | 6.4 | 0.00 | 0.00 | 0.00 | 78 | 1015.2 |
| 20260508105852 | 6 | 221 | 3.2 | 4.8 | 0.00 | 0.00 | 0.00 | 78 | 1015.1 |
| 20260508105351 | 6 | 218 | 4.8 | 8.0 | 0.00 | 0.00 | 0.00 | 79 | 1015.1 |
| 20260508104850 | 6 | 230 | 4.8 | 6.4 | 0.00 | 0.00 | 0.00 | 81 | 1015.2 |
| 20260508104351 | 6 | 241 | 3.2 | 4.8 | 0.00 | 0.00 | 0.00 | 83 | 1015.2 |
| 20260508103852 | 6 | 236 | 3.2 | 3.2 | 0.00 | 0.00 | 0.00 | 83 | 1015.2 |
| 20260508103349 | 5 | 235 | 1.6 | 3.2 | 0.00 | 0.00 | 0.00 | 83 | 1015.2 |
| 20260508102851 | 5 | 241 | 1.6 | 3.2 | 0.00 | 0.00 | 0.00 | 84 | 1015.2 |
| 20260508102351 | 5 | 236 | 1.6 | 1.6 | 0.00 | 0.00 | 0.00 | 84 | 1015.1 |
| 20260508101851 | 5 | 234 | 1.6 | 1.6 | 0.00 | 0.00 | 0.00 | 84 | 1015.2 |
| 20260508101353 | 5 | 226 | 1.6 | 3.2 | 0.00 | 0.00 | 0.00 | 84 | 1015.2 |
| 20260508100851 | 5 | 231 | 1.6 | 1.6 | 0.00 | 0.00 | 0.00 | 85 | 1015.1 |
| 20260508100352 | 5 | 210 | 0.0 | 3.2 | 0.00 | 0.00 | 0.00 | 86 | 1015.2 |
| 20260508095853 | 5 | 222 | 1.6 | 3.2 | 0.00 | 0.00 | 0.00 | 86 | 1015.2 |
| 20260508095351 | 5 | 0 | 0.0 | 0.0 | 0.00 | 0.00 | 0.00 | 87 | 1015.3 |
| 20260508094850 | 5 | 0 | 0.0 | 0.0 | 0.00 | 0.00 | 0.00 | 87 | 1015.2 |
| 20260508094351 | 5 | 212 | 1.6 | 3.2 | 0.00 | 0.00 | 0.00 | 88 | 1015.1 |
| 20260508093851 | 4 | 235 | 3.2 | 3.2 | 0.00 | 0.00 | 0.00 | 89 | 1015.3 |
| 20260508093351 | 4 | 234 | 1.6 | 1.6 | 0.00 | 0.00 | 0.00 | 89 | 1015.3 |
| 20260508092850 | 4 | 226 | 1.6 | 3.2 | 0.00 | 0.00 | 0.00 | 89 | 1015.2 |
| 20260508092352 | 4 | 227 | 1.6 | 3.2 | 0.00 | 0.00 | 0.00 | 89 | 1015.3 |
| 20260508091852 | 4 | 221 | 0.0 | 1.6 | 0.00 | 0.00 | 0.00 | 88 | 1015.2 |
| 20260508091351 | 4 | 0 | 0.0 | 0.0 | 0.00 | 0.00 | 0.00 | 89 | 1015.3 |
| 20260508090852 | 4 | 234 | 1.6 | 3.2 | 0.00 | 0.00 | 0.00 | 89 | 1015.3 |
| 20260508090352 | 4 | 253 | 0.0 | 1.6 | 0.00 | 0.00 | 0.00 | 88 | 1015.2 |
| 20260508085854 | 4 | 213 | 1.6 | 3.2 | 0.00 | 0.00 | 0.00 | 88 | 1015.2 |
| 20260508085352 | 4 | 225 | 3.2 | 3.2 | 0.00 | 0.00 | 0.00 | 88 | 1015.1 |
| 20260508084852 | 4 | 226 | 1.6 | 1.6 | 0.00 | 0.00 | 0.00 | 88 | 1015.1 |
| 20260508084353 | 4 | 221 | 1.6 | 1.6 | 0.00 | 0.00 | 0.00 | 88 | 1015.1 |
| 20260508083849 | 5 | 213 | 1.6 | 3.2 | 0.00 | 0.00 | 0.00 | 87 | 1015.1 |
| 20260508083353 | 5 | 221 | 1.6 | 3.2 | 0.00 | 0.00 | 0.00 | 87 | 1015.2 |
| 20260508082855 | 5 | 221 | 1.6 | 1.6 | 0.00 | 0.00 | 0.00 | 87 | 1015.1 |
| 20260508082351 | 5 | 228 | 1.6 | 1.6 | 0.00 | 0.00 | 0.00 | 86 | 1015.2 |
| 20260508081852 | 5 | 224 | 1.6 | 3.2 | 0.00 | 0.00 | 0.00 | 86 | 1015.1 |
| 20260508081352 | 5 | 241 | 0.0 | 1.6 | 0.00 | 0.00 | 0.00 | 85 | 1015.0 |
| 20260508080853 | 5 | 236 | 0.0 | 1.6 | 0.00 | 0.00 | 0.00 | 85 | 1014.9 |
| 20260508080351 | 5 | 222 | 0.0 | 1.6 | 0.00 | 0.00 | 0.00 | 85 | 1014.9 |
| 20260508075852 | 5 | 0 | 0.0 | 0.0 | 0.00 | 0.00 | 0.00 | 84 | 1014.9 |
| 20260508075351 | 5 | 0 | 0.0 | 0.0 | 0.00 | 0.00 | 0.00 | 84 | 1014.9 |
| 20260508074851 | 5 | 0 | 0.0 | 0.0 | 0.00 | 0.00 | 0.00 | 84 | 1014.9 |
| 20260508074352 | 5 | 240 | 1.6 | 3.2 | 0.00 | 0.00 | 0.00 | 84 | 1014.9 |
| 20260508073854 | 5 | 236 | 1.6 | 3.2 | 0.00 | 0.00 | 0.00 | 84 | 1014.9 |
| 20260508073352 | 5 | 230 | 1.6 | 3.2 | 0.00 | 0.00 | 0.00 | 84 | 1014.9 |
| 20260508072851 | 5 | 240 | 1.6 | 3.2 | 0.00 | 0.00 | 0.00 | 83 | 1014.9 |
| 20260508072352 | 6 | 214 | 1.6 | 3.2 | 0.00 | 0.00 | 0.00 | 83 | 1014.9 |
| 20260508071852 | 6 | 240 | 1.6 | 1.6 | 0.00 | 0.00 | 0.00 | 83 | 1015.0 |
| 20260508071352 | 6 | 235 | 1.6 | 3.2 | 0.00 | 0.00 | 0.00 | 82 | 1015.0 |
| 20260508070852 | 6 | 233 | 1.6 | 1.6 | 0.00 | 0.00 | 0.00 | 81 | 1014.9 |
| 20260508070352 | 6 | 230 | 3.2 | 3.2 | 0.00 | 0.00 | 0.00 | 80 | 1015.0 |
| 20260508065849 | 6 | 230 | 1.6 | 1.6 | 0.00 | 0.00 | 0.00 | 81 | 1015.0 |
| 20260508065349 | 6 | 229 | 3.2 | 4.8 | 0.00 | 0.00 | 0.00 | 81 | 1015.0 |
| 20260508064851 | 6 | 232 | 3.2 | 4.8 | 0.00 | 0.00 | 0.00 | 82 | 1015.0 |
| 20260508064351 | 5 | 235 | 1.6 | 4.8 | 0.00 | 0.00 | 0.00 | 83 | 1015.1 |
| 20260508063851 | 5 | 234 | 3.2 | 3.2 | 0.00 | 0.00 | 0.00 | 84 | 1015.2 |
| 20260508063352 | 5 | 241 | 3.2 | 3.2 | 0.00 | 0.00 | 0.00 | 86 | 1015.4 |
| 20260508062853 | 5 | 241 | 3.2 | 3.2 | 0.00 | 0.00 | 0.00 | 87 | 1015.5 |
| 20260508062354 | 5 | 237 | 3.2 | 3.2 | 0.00 | 0.00 | 0.00 | 88 | 1015.6 |
| 20260508061851 | 5 | 247 | 1.6 | 3.2 | 0.00 | 0.00 | 0.00 | 89 | 1015.6 |
| 20260508061349 | 5 | 244 | 1.6 | 3.2 | 0.00 | 0.00 | 0.00 | 89 | 1015.7 |
| 20260508060850 | 5 | 228 | 3.2 | 3.2 | 0.00 | 0.00 | 0.00 | 89 | 1015.6 |
| 20260508060349 | 5 | 237 | 1.6 | 3.2 | 0.00 | 0.00 | 0.00 | 89 | 1015.7 |
| 20260508055850 | 5 | 229 | 1.6 | 3.2 | 0.00 | 0.00 | 0.00 | 89 | 1015.6 |
| 20260508055351 | 5 | 227 | 1.6 | 3.2 | 0.00 | 0.00 | 0.00 | 89 | 1015.6 |
| 20260508054852 | 5 | 222 | 0.0 | 1.6 | 0.00 | 0.00 | 0.00 | 88 | 1015.6 |
| 20260508054355 | 5 | 0 | 0.0 | 0.0 | 0.00 | 0.00 | 0.00 | 88 | 1015.6 |
| 20260508053851 | 5 | 220 | 1.6 | 3.2 | 0.00 | 0.00 | 0.00 | 88 | 1015.6 |
| 20260508053353 | 5 | 233 | 1.6 | 3.2 | 0.00 | 0.00 | 0.00 | 89 | 1015.6 |
| 20260508052851 | 5 | 236 | 1.6 | 1.6 | 0.00 | 0.00 | 0.00 | 88 | 1015.6 |
| 20260508052350 | 5 | 230 | 1.6 | 1.6 | 0.00 | 0.00 | 0.00 | 88 | 1015.5 |
| 20260508051849 | 5 | 237 | 0.0 | 1.6 | 0.00 | 0.00 | 0.00 | 88 | 1015.5 |
| 20260508051354 | 5 | 232 | 1.6 | 1.6 | 0.00 | 0.00 | 0.00 | 88 | 1015.5 |
| 20260508050852 | 5 | 235 | 1.6 | 3.2 | 0.00 | 0.00 | 0.00 | 88 | 1015.5 |
| 20260508050350 | 5 | 232 | 3.2 | 3.2 | 0.00 | 0.00 | 0.00 | 88 | 1015.6 |
| 20260508045849 | 5 | 224 | 0.0 | 3.2 | 0.00 | 0.00 | 0.00 | 87 | 1015.6 |
| 20260508045350 | 5 | 0 | 0.0 | 0.0 | 0.00 | 0.00 | 0.00 | 87 | 1015.6 |
| 20260508044849 | 5 | 268 | 0.0 | 1.6 | 0.00 | 0.00 | 0.00 | 87 | 1015.5 |
| 20260508044349 | 5 | 0 | 0.0 | 0.0 | 0.00 | 0.00 | 0.00 | 87 | 1015.5 |
| 20260508043850 | 5 | 0 | 0.0 | 0.0 | 0.00 | 0.00 | 0.00 | 87 | 1015.5 |
| 20260508043351 | 5 | 0 | 0.0 | 0.0 | 0.00 | 0.00 | 0.00 | 87 | 1015.5 |
| 20260508042849 | 5 | 240 | 1.6 | 1.6 | 0.00 | 0.00 | 0.00 | 87 | 1015.5 |
| 20260508042350 | 5 | 249 | 0.0 | 1.6 | 0.00 | 0.00 | 0.00 | 87 | 1015.5 |
| 20260508041850 | 5 | 267 | 1.6 | 3.2 | 0.00 | 0.00 | 0.00 | 87 | 1015.5 |
| 20260508041354 | 5 | 253 | 0.0 | 1.6 | 0.00 | 0.00 | 0.00 | 87 | 1015.5 |
| 20260508040851 | 5 | 226 | 0.0 | 0.0 | 0.00 | 0.00 | 0.00 | 87 | 1015.5 |
| 20260508040351 | 6 | 239 | 3.2 | 3.2 | 0.00 | 0.00 | 0.00 | 87 | 1015.5 |
| 20260508035851 | 6 | 246 | 1.6 | 1.6 | 0.00 | 0.00 | 0.00 | 87 | 1015.6 |
| 20260508035351 | 6 | 249 | 3.2 | 3.2 | 0.00 | 0.00 | 0.00 | 87 | 1015.6 |
| 20260508034852 | 6 | 237 | 1.6 | 1.6 | 0.00 | 0.00 | 0.00 | 86 | 1015.6 |
| 20260508034351 | 6 | 241 | 1.6 | 1.6 | 0.00 | 0.00 | 0.00 | 86 | 1015.6 |
| 20260508033853 | 6 | 210 | 1.6 | 3.2 | 0.00 | 0.00 | 0.00 | 86 | 1015.6 |
| 20260508033351 | 6 | 235 | 3.2 | 3.2 | 0.00 | 0.00 | 0.00 | 86 | 1015.7 |
| 20260508032852 | 6 | 224 | 1.6 | 3.2 | 0.00 | 0.00 | 0.00 | 86 | 1015.6 |
| 20260508032352 | 6 | 232 | 1.6 | 1.6 | 0.00 | 0.00 | 0.00 | 85 | 1015.7 |
| 20260508031851 | 6 | 240 | 1.6 | 1.6 | 0.00 | 0.00 | 0.00 | 85 | 1015.7 |
| 20260508031352 | 6 | 235 | 1.6 | 1.6 | 0.00 | 0.00 | 0.00 | 84 | 1015.6 |
| 20260508030849 | 6 | 231 | 1.6 | 1.6 | 0.00 | 0.00 | 0.00 | 84 | 1015.5 |
| 20260508030351 | 6 | 217 | 3.2 | 3.2 | 0.00 | 0.00 | 0.00 | 83 | 1015.5 |
| 20260508025853 | 6 | 229 | 3.2 | 3.2 | 0.00 | 0.00 | 0.00 | 83 | 1015.5 |
| 20260508025353 | 7 | 244 | 0.0 | 1.6 | 0.00 | 0.00 | 0.00 | 83 | 1015.6 |
| 20260508024850 | 7 | 238 | 3.2 | 3.2 | 0.00 | 0.00 | 0.00 | 82 | 1015.5 |
| 20260508024349 | 7 | 231 | 3.2 | 3.2 | 0.00 | 0.00 | 0.00 | 82 | 1015.4 |
| 20260508023851 | 7 | 231 | 3.2 | 3.2 | 0.00 | 0.00 | 0.00 | 81 | 1015.4 |
| 20260508023352 | 7 | 219 | 3.2 | 3.2 | 0.00 | 0.00 | 0.00 | 80 | 1015.4 |
| 20260508022853 | 7 | 228 | 3.2 | 4.8 | 0.00 | 0.00 | 0.00 | 80 | 1015.4 |
| 20260508022352 | 7 | 220 | 3.2 | 3.2 | 0.00 | 0.00 | 0.00 | 80 | 1015.4 |
| 20260508021851 | 7 | 204 | 3.2 | 3.2 | 0.00 | 0.00 | 0.00 | 79 | 1015.4 |
| 20260508021350 | 7 | 219 | 3.2 | 3.2 | 0.00 | 0.00 | 0.00 | 78 | 1015.5 |
| 20260508020850 | 7 | 229 | 1.6 | 3.2 | 0.00 | 0.00 | 0.00 | 78 | 1015.4 |
| 20260508020349 | 8 | 238 | 0.0 | 1.6 | 0.00 | 0.00 | 0.00 | 77 | 1015.4 |
| 20260508015850 | 8 | 228 | 3.2 | 3.2 | 0.00 | 0.00 | 0.00 | 77 | 1015.3 |
| 20260508014930 | 8 | 229 | 3.2 | 3.2 | 0.00 | 0.00 | 0.00 | 74 | 1015.1 |
| 20260508014349 | 8 | 228 | 1.6 | 1.6 | 0.00 | 0.00 | 0.00 | 71 | 1015.0 |
| 20260508013850 | 8 | 226 | 1.6 | 3.2 | 0.00 | 0.00 | 0.00 | 71 | 1015.0 |
| 20260508013351 | 9 | 212 | 3.2 | 3.2 | 0.00 | 0.00 | 0.00 | 70 | 1014.9 |
| 20260508012851 | 9 | 217 | 3.2 | 3.2 | 0.00 | 0.00 | 0.00 | 68 | 1014.8 |
| 20260508012350 | 9 | 227 | 1.6 | 3.2 | 0.00 | 0.00 | 0.00 | 67 | 1014.7 |
| 20260508011853 | 10 | 226 | 1.6 | 3.2 | 0.00 | 0.00 | 0.00 | 66 | 1014.7 |
| 20260508011349 | 10 | 231 | 1.6 | 1.6 | 0.00 | 0.00 | 0.00 | 66 | 1014.7 |
| 20260508010849 | 10 | 231 | 1.6 | 3.2 | 0.00 | 0.00 | 0.00 | 65 | 1014.5 |
| 20260508010350 | 10 | 240 | 1.6 | 3.2 | 0.00 | 0.00 | 0.00 | 63 | 1014.4 |
| 20260508005850 | 11 | 0 | 0.0 | 0.0 | 0.00 | 0.00 | 0.00 | 60 | 1014.2 |
| 20260508005350 | 11 | 246 | 1.6 | 3.2 | 0.00 | 0.00 | 0.00 | 60 | 1014.1 |
| 20260508004850 | 11 | 224 | 1.6 | 3.2 | 0.00 | 0.00 | 0.00 | 58 | 1014.0 |
| 20260508004350 | 11 | 231 | 1.6 | 3.2 | 0.00 | 0.00 | 0.00 | 55 | 1014.0 |
| 20260508003850 | 12 | 0 | 0.0 | 0.0 | 0.00 | 0.00 | 0.00 | 54 | 1013.9 |
| 20260508003349 | 12 | 0 | 0.0 | 0.0 | 0.00 | 0.00 | 0.00 | 54 | 1013.9 |
| 20260508002853 | 12 | 220 | 1.6 | 3.2 | 0.00 | 0.00 | 0.00 | 53 | 1013.7 |
| 20260508002350 | 13 | 221 | 0.0 | 3.2 | 0.00 | 0.00 | 0.00 | 52 | 1013.7 |
| 20260508001850 | 13 | 318 | 1.6 | 3.2 | 0.00 | 0.00 | 0.00 | 50 | 1013.6 |
| 20260508001351 | 13 | 219 | 0.0 | 0.0 | 0.00 | 0.00 | 0.00 | 51 | 1013.6 |
| 20260508000850 | 13 | 274 | 0.0 | 1.6 | 0.00 | 0.00 | 0.00 | 48 | 1013.5 |
| 20260508000350 | 13 | 316 | 0.0 | 1.6 | 0.00 | 0.00 | 0.00 | 49 | 1013.5 |
| 20260507235849 | 14 | 333 | 0.0 | 1.6 | 0.00 | 0.00 | 0.00 | 49 | 1013.4 |
| 20260507235350 | 14 | 350 | 3.2 | 3.2 | 0.00 | 0.00 | 0.00 | 47 | 1013.3 |
| 20260507234854 | 15 | 16 | 3.2 | 4.8 | 0.00 | 0.00 | 0.00 | 45 | 1013.2 |
| 20260507234349 | 15 | 345 | 3.2 | 3.2 | 0.00 | 0.00 | 0.00 | 44 | 1013.2 |
| 20260507233852 | 15 | 1 | 3.2 | 4.8 | 0.00 | 0.00 | 0.00 | 42 | 1013.1 |
| 20260507233351 | 15 | 13 | 1.6 | 3.2 | 0.00 | 0.00 | 0.00 | 44 | 1013.1 |
| 20260507232850 | 15 | 342 | 3.2 | 6.4 | 0.00 | 0.00 | 0.00 | 44 | 1013.0 |
| 20260507232350 | 15 | 1 | 3.2 | 3.2 | 0.00 | 0.00 | 0.00 | 44 | 1013.1 |
| 20260507231854 | 15 | 38 | 3.2 | 4.8 | 0.00 | 0.00 | 0.00 | 44 | 1013.1 |
| 20260507231350 | 15 | 27 | 3.2 | 6.4 | 0.00 | 0.00 | 0.00 | 44 | 1013.2 |
| 20260507230849 | 15 | 15 | 1.6 | 4.8 | 0.00 | 0.00 | 0.00 | 44 | 1013.2 |
| 20260507230350 | 15 | 19 | 6.4 | 9.7 | 0.00 | 0.00 | 0.00 | 43 | 1013.2 |
| 20260507225852 | 15 | 8 | 3.2 | 6.4 | 0.00 | 0.00 | 0.00 | 44 | 1013.2 |
| 20260507225350 | 15 | 344 | 3.2 | 6.4 | 0.00 | 0.00 | 0.00 | 44 | 1013.2 |
| 20260507224849 | 15 | 313 | 6.4 | 11.3 | 0.00 | 0.00 | 0.00 | 45 | 1013.2 |
| 20260507224350 | 15 | 344 | 4.8 | 6.4 | 0.00 | 0.00 | 0.00 | 44 | 1013.1 |
| 20260507223849 | 15 | 286 | 3.2 | 6.4 | 0.00 | 0.00 | 0.00 | 44 | 1013.1 |
| 20260507223349 | 15 | 313 | 6.4 | 9.7 | 0.00 | 0.00 | 0.00 | 43 | 1013.1 |
| 20260507222849 | 15 | 19 | 4.8 | 8.0 | 0.00 | 0.00 | 0.00 | 45 | 1013.1 |
| 20260507222350 | 16 | 347 | 6.4 | 9.7 | 0.00 | 0.00 | 0.00 | 43 | 1013.1 |
| 20260507221850 | 15 | 259 | 4.8 | 8.0 | 0.00 | 0.00 | 0.00 | 43 | 1013.1 |
| 20260507221349 | 15 | 307 | 6.4 | 9.7 | 0.00 | 0.00 | 0.00 | 43 | 1013.2 |
| 20260507220850 | 15 | 350 | 4.8 | 11.3 | 0.00 | 0.00 | 0.00 | 44 | 1013.3 |
| 20260507220350 | 15 | 347 | 6.4 | 9.7 | 0.00 | 0.00 | 0.00 | 44 | 1013.2 |
| 20260507215851 | 15 | 40 | 4.8 | 6.4 | 0.00 | 0.00 | 0.00 | 44 | 1013.2 |
| 20260507215351 | 15 | 256 | 1.6 | 3.2 | 0.00 | 0.00 | 0.00 | 44 | 1013.3 |
| 20260507214850 | 15 | 339 | 6.4 | 12.9 | 0.00 | 0.00 | 0.00 | 46 | 1013.2 |
| 20260507214350 | 15 | 3 | 9.7 | 19.3 | 0.00 | 0.00 | 0.00 | 44 | 1013.2 |
| 20260507213849 | 15 | 353 | 4.8 | 8.0 | 0.00 | 0.00 | 0.00 | 46 | 1013.2 |
| 20260507213352 | 15 | 314 | 4.8 | 9.7 | 0.00 | 0.00 | 0.00 | 45 | 1013.1 |
| 20260507212851 | 15 | 347 | 4.8 | 9.7 | 0.00 | 0.00 | 0.00 | 47 | 1013.2 |
| 20260507212352 | 15 | 358 | 4.8 | 6.4 | 0.00 | 0.00 | 0.00 | 45 | 1013.1 |
| 20260507211849 | 15 | 328 | 4.8 | 8.0 | 0.00 | 0.00 | 0.00 | 46 | 1013.2 |
| 20260507211350 | 15 | 346 | 3.2 | 6.4 | 0.00 | 0.00 | 0.00 | 48 | 1013.2 |
| 20260507210851 | 15 | 16 | 4.8 | 6.4 | 0.00 | 0.00 | 0.00 | 47 | 1013.1 |
| 20260507210353 | 15 | 298 | 3.2 | 4.8 | 0.00 | 0.00 | 0.00 | 49 | 1013.2 |
| 20260507205850 | 15 | 335 | 11.3 | 14.5 | 0.00 | 0.00 | 0.00 | 45 | 1013.0 |
| 20260507205350 | 14 | 29 | 4.8 | 6.4 | 0.00 | 0.00 | 0.00 | 47 | 1013.0 |
| 20260507204852 | 15 | 15 | 6.4 | 9.7 | 0.00 | 0.00 | 0.00 | 48 | 1013.2 |
| 20260507204351 | 15 | 20 | 8.0 | 12.9 | 0.00 | 0.00 | 0.00 | 48 | 1013.1 |
| 20260507203853 | 15 | 10 | 9.7 | 12.9 | 0.00 | 0.00 | 0.00 | 47 | 1013.0 |
| 20260507203356 | 15 | 308 | 6.4 | 9.7 | 0.00 | 0.00 | 0.00 | 46 | 1012.9 |
| 20260507202900 | 15 | 346 | 8.0 | 12.9 | 0.00 | 0.00 | 0.00 | 46 | 1013.0 |
| 20260507202350 | 15 | 6 | 9.7 | 16.1 | 0.00 | 0.00 | 0.00 | 46 | 1013.0 |
| 20260507201851 | 15 | 3 | 4.8 | 9.7 | 0.00 | 0.00 | 0.00 | 46 | 1013.0 |
| 20260507201352 | 15 | 309 | 3.2 | 4.8 | 0.00 | 0.00 | 0.00 | 45 | 1013.0 |
| 20260507200852 | 15 | 0 | 4.8 | 8.0 | 0.00 | 0.00 | 0.00 | 47 | 1013.1 |